Regional Weather Roundup
Issued by NWS

Home | Current Version | Previous Version | Graphics & Text | Print | Product List | Glossary On
Versions: 1 2 3 4 5 6 7 8 9 10 11 12 13 14 15 16 17 18 19 20 21 22 23 24 25 26 27
000
ASUS45 KBOU 230407
RWRCO

WEATHER ROUNDUP FOR COLORADO
NATIONAL WEATHER SERVICE DENVER/BOULDER CO
1000 PM MDT WED OCT 22 2014

NOTE: "FAIR" INDICATES FEW OR NO CLOUDS BELOW 12000 FEET WITH NO
SIGNIFICANT WEATHER AND/OR OBSTRUCTIONS TO VISIBILITY.

COZ001>005-013-030-031-230500-
...NORTHWEST COLORADO...

CITY           SKY/WX    TMP DP  RH WIND       PRES   REMARKS
CRAIG          CLEAR     37  32  82 CALM      30.25R
HAYDEN         CLEAR     39  32  75 SE5       30.26R
MEEKER         CLEAR     42  36  79 NE3       30.25R
MOUNT WERNER   NOT AVBL
STEAMBOAT SPGS CLEAR     40  32  72 CALM      30.27R
WALDEN         PTCLDY    34  28  80 SE6       30.30R WCI  29
$$

COZ006>008-011-230500-
...WEST CENTRAL VALLEYS...

CITY           SKY/WX    TMP DP  RH WIND       PRES   REMARKS
GRAND JUNCTION CLEAR     53  39  59 E8        30.17R
MONTROSE       CLEAR     49  39  68 SE9       30.24R
EAGLE          PTCLDY    43  41  93 CALM      30.29R
RIFLE          CLEAR     46  41  82 SW5       30.23R
DELTA          CLEAR     52  37  56 NE6       30.20R
NUCLA          NOT AVBL
$$

COZ017>023-064>068-230500-
...SOUTHWEST COLORADO...

CITY           SKY/WX    TMP DP  RH WIND       PRES   REMARKS
DURANGO        CLEAR     43  38  82 NE8       30.25R
CORTEZ         CLEAR     45  35  68 NE3       30.23R
PAGOSA SPRINGS CLEAR     42  39  90 CALM      30.31S
TELLURIDE      PTCLDY    44  33  66 SE6       30.39R
WOLF CREEK PAS CLEAR     32  32 100 SW12        N/A  WCI  23
$$

COZ009-010-012-014-032>034-037-058>063-230500-
...CENTRAL COLORADO...

CITY           SKY/WX    TMP DP  RH WIND       PRES   REMARKS
ASPEN          PTCLDY    37  34  89 SW7       30.31R
BUENA VISTA    PTCLDY    41  33  72 CALM      30.30S
COPPER MTN     PTCLDY    34  27  75 SW8       30.46S WCI  27
BERTHOUD PASS  FAIR      27  23  86 NW17      30.46S WCI  14
COTTONWOOD PAS PTCLDY    43  30  61 NW5       30.37S
GUNNISON       PTCLDY    45  34  65 CALM      30.32R
KREMMLING      PTCLDY    37  34  87 E3          N/A
LEADVILLE      PTCLDY    34  27  75 NE9       30.37S WCI  27
MONARCH PASS   CLOUDY    32  32 100 W18       30.56S WCI  20
SALIDA         MOCLDY    48  37  67 CALM      30.35S
SUNLIGHT       CLEAR     34  32  93 CALM      30.44R
WILKERSON PASS NOT AVBL
$$

COZ069>075-230500-
...SAN LUIS VALLEY/SANGRE DE CRISTO MOUNTAINS...

CITY           SKY/WX    TMP DP  RH WIND       PRES   REMARKS
ALAMOSA        PTCLDY    43  33  68 NW5       30.27R
LA VETA PASS   NOT AVBL
SAGUACHE       PTCLDY    45  34  65 N9        30.30R
$$

COZ035-036-038>040-230500-
...NORTHERN COLORADO FRONT RANGE...

CITY           SKY/WX    TMP DP  RH WIND       PRES   REMARKS
DENVER INTL AP PTCLDY    50  41  71 S9        30.14S
DMNS CITY PARK   N/A     55  40  58 SW1       30.14S
AURORA         PTCLDY    50  42  74 S9        30.16S
FRONT RANGE AP PTCLDY    50  43  76 S12       30.16S
ERIE MUNI ARPT MOCLDY    60  32  34 SW8       30.13S
BOULDER MUN AP MOCLDY    57  34  41 SW6       30.14S
CENTENNIAL     MOCLDY    52  40  63 SE6       30.16F
BROOMFIELD     PTCLDY    55  36  47 W9        30.16S
FORT COLLINS   PTCLDY    48  37  66 N3        30.15R
LONGMONT       PTCLDY    51  38  59 CALM      30.15S
$$

COZ041-046-047-076>085-087-088-230500-
...PIKES PEAK/PALMER DIVIDE AND SOUTHERN FOOTHILLS...

CITY           SKY/WX    TMP DP  RH WIND       PRES   REMARKS
COLO. SPRINGS  PTCLDY    49  40  71 N6        30.21R
A. F. ACADEMY  PTCLDY    44  39  85 N7        30.22R
ELLICOTT       NOT AVBL
FALCON         PTCLDY    43  38  82 NW3       30.24S
FORT CARSON    MOCLDY    51  41  67 N5        30.19R
LIMON          CLOUDY    47  45  93 CALM      30.17R
MONUMENT HILL  MOCLDY    43  36  75 S7        30.22S
TRINIDAD       LGT RAIN  58  42  55 S5        30.15S
$$

COZ042>045-048>051-090-091-230500-
...NORTHEAST COLORADO...

CITY           SKY/WX    TMP DP  RH WIND       PRES   REMARKS
GREELEY ARPT   PTCLDY    48  36  61 NE7       30.14R
AKRON          CLEAR     48  34  58 SE7       30.13R
BURLINGTON     PTCLDY    51  41  68 SE5       30.11F
WRAY           PTCLDY    51  32  47 E3        30.10S
STERLING       CLEAR     48  37  66 NW3       30.11S
HOLYOKE        PTCLDY    46  36  66 CALM      30.10F
FORT MORGAN    CLEAR     48  35  60 NE7       30.13S
$$

COZ086-089-092>099-230500-
...SOUTHEAST COLORADO...

CITY           SKY/WX    TMP DP  RH WIND       PRES   REMARKS
PUEBLO         CLOUDY    61  45  55 E8        30.13R
LA JUNTA       MOCLDY    57  45  64 NE5       30.11R
LAMAR          PTCLDY    54  46  74 NW5       30.08R
SPRINGFIELD      N/A     55  45  68 E5        30.13R
$$



USA.gov is the U.S. government's official web portal to all federal, state and local government web resources and services.